Seattle Boeing, WA

7:57 PM PDT on April 26, 2018 (GMT -0700)
Boeing Field-King County International

Weather History for KBFI - November, 2013

Change the Weather History Date:

Friday, November 29, 2013

  Actual Average Record
Temperature  
Mean Temperature 44 °F -  
Max Temperature 48 °F 46 °F 57 °F (1999)
Min Temperature 39 °F 36 °F 19 °F (2006)
Degree Days  
Heating Degree Days 22    
Moisture  
Dew Point 41 °F    
Average Humidity 86    
Maximum Humidity 93    
Minimum Humidity 76    
Precipitation  
Precipitation 0.01 in - - ()
Sea Level Pressure  
Sea Level Pressure 30.27 in    
Wind  
Wind Speed 3 mph (SE)    
Max Wind Speed 8 mph    
Max Gust Speed -    
Visibility 7 miles    
Events Fog    
Averages and records for this station are not official NWS values.
T = Trace of Precipitation, MM = Missing Value Source: NWS Daily Summary

Daily Weather History Graph

Daily Weather History Graph

Search for Another Location

Airport or City:

Astronomy

Nov. 29, 2013 Rise Set
Actual Time 7:34 AM PST 4:20 PM PST
Civil Twilight 6:59 AM PST 4:55 PM PST
Nautical Twilight 6:20 AM PST 5:34 PM PST
Astronomical Twilight 5:43 AM PST 6:11 PM PST
Moon 3:31 AM PST (11/29) 2:20 PM PST (11/29)
Length of Visible Light 9h 56m
Length of Day
8h 46m
Waning Crescent, 13% of the Moon is Illuminated
Nov 29
Waning Crescent
Dec 2
New
Dec 9
First Quarter
Dec 17
Full
Dec 25
Last Quarter

Hourly Weather History & Observations

Time (PST) Temp. Windchill Dew Point Humidity Pressure Visibility Wind Dir Wind Speed Gust Speed Precip Events Conditions
12:53 AM 39.0 °F 35.7 °F 37.0 °F 93% 30.20 in 6.0 mi SE 4.6 mph - N/A Fog Shallow Fog
1:53 AM 39.9 °F 36.7 °F 37.0 °F 89% 30.21 in 6.0 mi South 4.6 mph - N/A Fog Patches of Fog
2:53 AM 39.9 °F 36.7 °F 36.0 °F 86% 30.21 in 9.0 mi SSE 4.6 mph - N/A Fog Patches of Fog
3:53 AM 39.9 °F - 37.0 °F 89% 30.21 in 10.0 mi Calm Calm - N/A   Overcast
4:53 AM 42.1 °F - 37.0 °F 82% 30.21 in 10.0 mi Calm Calm - N/A   Overcast
5:53 AM 42.1 °F - 37.9 °F 85% 30.21 in 10.0 mi Calm Calm - N/A   Overcast
6:53 AM 42.1 °F - 37.0 °F 82% 30.23 in 10.0 mi Calm Calm - N/A   Mostly Cloudy
7:53 AM 43.0 °F - 37.9 °F 82% 30.24 in 10.0 mi Calm Calm - N/A   Overcast
8:53 AM 44.1 °F 41.5 °F 37.9 °F 79% 30.27 in 10.0 mi SE 4.6 mph - N/A   Overcast
9:53 AM 46.0 °F 43.1 °F 39.0 °F 76% 30.27 in 10.0 mi SE 5.8 mph - N/A   Overcast
10:53 AM 48.0 °F - 41.0 °F 77% 30.27 in 10.0 mi SSE 6.9 mph - N/A   Overcast
11:53 AM 46.9 °F - 44.1 °F 90% 30.27 in 7.0 mi Calm Calm - N/A   Overcast
12:53 PM 48.0 °F - 44.1 °F 86% 30.27 in 4.0 mi SE 3.5 mph - N/A   Overcast
1:53 PM 48.0 °F - 44.1 °F 86% 30.27 in 4.0 mi Calm Calm - N/A   Overcast
2:41 PM 48.2 °F - 44.6 °F 87% 30.28 in 3.0 mi Calm Calm - N/A   Overcast
2:53 PM 48.0 °F - 45.0 °F 89% 30.29 in 3.0 mi Calm Calm - 0.00 in   Overcast
3:53 PM 48.0 °F - 44.1 °F 86% 30.30 in 4.0 mi SE 3.5 mph - N/A   Overcast
4:53 PM 46.0 °F 44.8 °F 43.0 °F 89% 30.30 in 4.0 mi SSE 3.5 mph - N/A   Overcast
5:53 PM 48.0 °F - 44.1 °F 86% 30.31 in 4.0 mi Calm Calm - 0.01 in   Overcast
6:53 PM 48.0 °F - 45.0 °F 89% 30.31 in 6.0 mi SSE 8.1 mph - N/A   Overcast
7:53 PM 48.9 °F - 45.0 °F 86% 30.32 in 5.0 mi SE 8.1 mph - N/A   Overcast
8:53 PM 48.0 °F - 45.0 °F 89% 30.32 in 9.0 mi SE 6.9 mph - N/A   Overcast
9:53 PM 48.0 °F - 45.0 °F 89% 30.31 in 10.0 mi SE 6.9 mph - N/A   Overcast
10:53 PM 48.0 °F - 44.1 °F 86% 30.31 in 10.0 mi SE 6.9 mph - N/A   Overcast
11:53 PM 48.0 °F - 44.1 °F 86% 30.32 in 10.0 mi SE 4.6 mph - N/A   Overcast